Lanai City, HI

5:16 PM HST on February 10, 2016 (GMT -1000)
Lanai City

Weather History for PHNY - March, 2013

Change the Weather History Date:

Sunday, March 3, 2013

  Actual Average Record
Temperature  
Mean Temperature 70 °F -  
Max Temperature 77 °F 75 °F 82 °F (1999)
Min Temperature 62 °F 59 °F 55 °F (1950)
Cooling Degree Days 4    
Growing Degree Days 20 (Base 50)    
Moisture  
Dew Point 54 °F    
Average Humidity 61    
Maximum Humidity 75    
Minimum Humidity 42    
Precipitation  
Precipitation 0.00 in - - ()
Sea Level Pressure  
Sea Level Pressure 30.13 in    
Wind  
Wind Speed 17 mph (NE)    
Max Wind Speed 25 mph    
Max Gust Speed 31 mph    
Averages and records for this station are not official NWS values.
T = Trace of Precipitation, MM = Missing Value Source: NWS Daily Summary

Daily Weather History Graph

Daily Weather History Graph

Search for Another Location

Airport or City:

Trip Planner

Search our weather history database for the weather conditions in past years. The results will help you decide how hot, cold, wet, or windy it might be!

Date:

Astronomy

Mar. 03, 2013 Rise Set
Actual Time 6:46 AM HST 6:33 PM HST
Civil Twilight 6:23 AM HST 6:55 PM HST
Nautical Twilight 5:58 AM HST 7:21 PM HST
Astronomical Twilight 5:32 AM HST 7:47 PM HST
Moon No Moon Rise 11:01 AM HST (3/3)
Length of Visible Light 12h 31m
Length of Day
11h 47m
Waning Gibbous, 61% of the Moon is Illuminated
Mar 3
Waning Gibbous
Mar 4
Last Quarter
Mar 11
New
Mar 19
First Quarter
Mar 26
Full

Hourly Weather History & Observations

Time (HST) Temp. Dew Point Humidity Pressure Visibility Wind Dir Wind Speed Gust Speed Precip Events Conditions
12:56 AM 64.9 °F 56.8 °F 75% 30.15 in - NE 20.7 mph 31.1 mph N/A   Mostly Cloudy
1:56 AM 64.9 °F 54.9 °F 70% 30.14 in - NE 19.6 mph 28.8 mph N/A   Mostly Cloudy
2:56 AM 63.9 °F 52.9 °F 67% 30.11 in - ENE 21.9 mph - N/A   Clear
3:56 AM 63.9 °F 52.9 °F 67% 30.10 in - NE 17.3 mph - N/A   Clear
4:56 AM 62.6 °F 53.6 °F 72% 30.14 in - NE 16.1 mph - N/A   Clear
5:56 AM 63.9 °F 52.0 °F 65% 30.10 in - NE 18.4 mph - N/A   Clear
6:56 AM 63.0 °F 54.0 °F 72% 30.12 in - NE 17.3 mph - N/A   Clear
7:56 AM 68.0 °F 53.6 °F 60% 30.18 in - ENE 12.7 mph - N/A   Clear
8:56 AM 72.0 °F 54.0 °F 53% 30.14 in - NE 13.8 mph 18.4 mph N/A   Clear
9:56 AM 73.9 °F 52.0 °F 46% 30.15 in - SSW 9.2 mph - N/A   Clear
10:56 AM 75.9 °F 52.9 °F 45% 30.14 in - Variable 6.9 mph - N/A   Mostly Cloudy
11:56 AM 77.9 °F 52.9 °F 42% 30.13 in - West 11.5 mph - N/A   Mostly Cloudy
12:56 PM 75.9 °F 54.0 °F 46% 30.11 in - Variable 3.5 mph - N/A   Mostly Cloudy
1:18 PM 77.0 °F 53.6 °F 44% 30.15 in - NNE 16.1 mph 27.6 mph N/A   Mostly Cloudy
1:56 PM 77.9 °F 54.9 °F 45% 30.08 in - NNE 20.7 mph 29.9 mph N/A   Mostly Cloudy
2:56 PM 74.8 °F 54.9 °F 50% 30.08 in - NE 20.7 mph 25.3 mph N/A   Mostly Cloudy
3:12 PM 73.4 °F 55.4 °F 53% 30.13 in - NE 15.0 mph 28.8 mph N/A   Mostly Cloudy
3:56 PM 72.0 °F 54.9 °F 55% 30.09 in - NE 23.0 mph - N/A   Mostly Cloudy
4:56 PM 73.9 °F 54.0 °F 50% 30.08 in - NE 23.0 mph 27.6 mph N/A   Clear
5:56 PM 68.9 °F 56.8 °F 65% 30.10 in - NE 25.3 mph 28.8 mph N/A   Mostly Cloudy
6:56 PM 65.8 °F 56.8 °F 73% 30.12 in - NE 19.6 mph - N/A   Clear
7:56 PM 64.4 °F 55.4 °F 73% 30.18 in - NE 16.1 mph - N/A   Clear
8:56 PM 64.9 °F 55.9 °F 73% 30.14 in - ENE 10.4 mph - N/A   Clear
9:56 PM 64.9 °F 54.9 °F 70% 30.14 in - NE 20.7 mph - N/A   Clear
10:56 PM 64.4 °F 53.6 °F 68% 30.20 in - NE 12.7 mph - N/A   Clear
11:56 PM 63.9 °F 55.9 °F 75% 30.15 in - NE 13.8 mph - N/A   Clear